Cloud_Cover
96 100 100 100 38 74 100 77 99 100 100 100 100 100 87 56 77 100 100 100 100 100 100 97 35 97 100 100 100 100 100 100 100 100 100 100 100 33 5 6 68 40 100
100 94 94 100 100 96 44 94 80 67 90 42 58 92 70 71 73 99 100 100 100 100 100 100 100 100 100 100 100 100 100 100 100 100 96 21 41 73 63 5 30 100 100
18 92 26 70 88 46 88 100 95 39 100 98 87 75 87 56 18 10 81 100 100 100 100 100 100 100 100 100 100 76 96 90 98 55 62 44 74 59 95 90 100 100 100
7 100 100 100 100 99 49 11 50 64 100 100 100 100 100 100 100 84 23 60 93 94 94 76 100 100 90 100 100 100 100 100 95 100 100 99 100 100 99 100 100 46 42
0 100 100 100 100 100 100 100 100 100 100 100 100 100 100 9 44 100 100 100 100 95 100 100 100 74 74 42 61 99 100 100 100 100 100 100 100 100 100 82 100 60 34
79 100 100 100 100 100 100 78 27 24 59 43 84 80 74 41 100 97 90 89 80 57 97 100 100 100 12 24 60 96 100 100 99 100 100 100 100 100 100 93 73 100 96
100 100 64 100 100 99 96 95 76 72 79 100 95 100 100 45 13 83 77 50 22 100 100 98 100 100 100 92 87 80 100 100 100 100 100 100 100 100 100 100 100 100 57
5 77 9 22 100 34 90 72 6 5 5 5 6 32 31 64 87 68 33 72 99 100 100 98 99 100 100 100 100 100 100 100 100 100 100 100 100 100 100 100 94 100 66
75 4 5 5 5 74 98 31 6 42 99 100 100 16 44 100 100 17 84 100 100 100 100 100 100 100 100 68 100 100 100 100 100 100 100 100 100 100 100 100 97 52 21
3 0 0 4 4 17 5 5 85 100 100 100 100 99 100 95 100 95 100 100 76 79 100 100 100 100 100 100 100 100 100 100 100 100 100 100 100 100 100 100 100 84 28
1 0 5 2 0 78 58 9 73 100 100 100 100 99 97 100 100 100 100 100 100 100 100 100 100 100 100 100 100 100 100 100 100 100 100 100 100 100 100 87 100 100 98
87 98 19 0 0 0 85 5 5 100 100 100 100 100 100 100 100 100 100 100 100 100 100 100 100 100 100 100 100 100 100 100 100 100 100 100 100 100 100 96 100 100 100
0 46 62 5 5 4 0 2 7 15 100 100 100 100 100 100 100 100 100 100 100 100 100 100 100 100 100 100 100 100 100 100 99 100 100 100 100 100 89 100 100 93 100
4 25 5 18 39 4 0 0 0 14 82 100 100 100 80 100 100 100 100 100 100 100 100 100 100 100 100 100 100 100 100 100 100 100 100 100 97 96 100 100 56 56 47
100 88 9 21 100 59 4 0 0 0 5 1 28 58 45 49 57 88 100 100 100 100 100 100 100 100 100 100 100 100 100 100 100 100 100 100 100 73 100 100 83 91 100
74 71 0 3 0 58 8 0 0 0 0 0 0 0 0 20 33 62 100 99 100 100 100 100 100 100 100 100 100 100 100 100 100 100 76 84 99 100 28 5 20 17 57
5 4 0 0 0 0 0 2 4 0 0 0 0 0 0 0 0 6 21 69 96 100 64 27 19 46 76 70 100 100 96 66 66 36 10 91 100 48 99 91 32 5 6
0 2 0 0 0 0 1 0 0 0 0 0 0 0 0 4 2 2 6 39 33 4 5 5 6 24 46 17 13 6 17 20 64 100 100 100 79 66 67 16 22 34 76
5 4 0 0 0 0 0 0 0 0 0 0 1 3 4 5 7 66 42 38 56 60 59 42 24 18 17 19 32 61 30 65 99 100 100 73 17 49 5 5 5 18 31
5 5 0 0 0 0 0 0 0 0 0 1 5 5 24 2 0 0 0 5 26 45 7 22 95 100 100 100 81 100 84 83 96 98 49 13 6 5 5 5 5 5 5
15 5 5 0 0 0 0 0 0 0 0 2 0 5 4 2 0 0 1 5 5 5 22 61 84 57 36 66 39 10 76 98 58 8 50 38 55 52 98 67 31 5 5
5 5 5 5 3 11 13 36 14 4 4 5 5 5 5 5 5 2 1 5 5 6 6 39 23 5 50 68 73 59 16 29 63 50 100 77 97 100 66 11 29 24 74
9 5 5 23 98 100 100 100 16 5 7 35 12 8 5 26 11 41 30 62 18 86 52 82 93 99 100 99 78 61 71 57 69 100 70 61 100 40 23 5 80 100 85
61 6 82 100 100 96 100 51 35 100 100 95 46 41 5 38 61 62 57 33 99 44 20 63 94 100 94 85 96 100 99 100 100 100 78 7 24 100 45 98 100 100 100
100 100 96 42 5 9 98 100 100 100 100 100 100 99 83 64 100 99 85 99 80 94 100 100 98 86 78 44 45 77 95 100 95 100 100 100 100 99 100 100 100 100 100
100 100 97 6 5 19 100 100 100 100 100 100 100 100 100 100 100 100 100 99 100 100 100 100 100 100 100 95 63 99 100 100 100 100 100 100 100 100 100 100 100 100 100